Weather History for Crystal River, FL

Change the Weather History Date:

Tuesday, February 18, 2014

  Actual Average (KBKV) Record (KBKV)
Temperature  
Mean Temperature 57 °F -  
Max Temperature 77 °F 71 °F 82 °F (2008)
Min Temperature 37 °F 46 °F 28 °F (2013)
Degree Days  
Heating Degree Days 8    
Growing Degree Days 7 (Base 50)    
Moisture  
Dew Point 44 °F    
Average Humidity 67    
Maximum Humidity 94    
Minimum Humidity 29    
Precipitation  
Precipitation 0.00 in - - ()
Sea Level Pressure  
Sea Level Pressure 30.20 in    
Wind  
Wind Speed 1 mph (West)    
Max Wind Speed 9 mph    
Max Gust Speed -    
Visibility 10 miles    
Events      
Averages and records for this station are not official NWS values.
T = Trace of Precipitation, MM = Missing Value Source: NWS Daily Summary

Daily Weather History Graph

Daily Weather History Graph

Search for Another Location

Airport:

Trip Planner

Search our weather history database for the weather conditions in past years. The results will help you decide how hot, cold, wet, or windy it might be!

Date:

Astronomy

Feb. 18, 2014 Rise Set
Actual Time 7:06 AM EST 6:22 PM EST
Civil Twilight 6:42 AM EST 6:46 PM EST
Nautical Twilight 6:14 AM EST 7:14 PM EST
Astronomical Twilight 5:46 AM EST 7:41 PM EST
Moon 9:52 PM EST (2/18) 8:57 AM EST (2/18)
Length of Visible Light 12h 04m
Length of Day
11h 16m
Waning Gibbous, 87% of the Moon is Illuminated
Feb 18
Waning Gibbous
Feb 22
Last Quarter
Mar 1
New
Mar 8
First Quarter
Mar 16
Full

Hourly Weather History & Observations

Time (EST) Temp. Dew Point Humidity Pressure Visibility Wind Dir Wind Speed Gust Speed Precip Events Conditions
12:15 AM 41.0 °F 37.4 °F 87% 30.22 in 10.0 mi Calm Calm - N/A   Clear
12:35 AM 41.0 °F 37.4 °F 87% 30.21 in 10.0 mi Calm Calm - N/A   Clear
12:55 AM 41.0 °F 37.4 °F 87% 30.21 in 10.0 mi Calm Calm - N/A   Clear
1:15 AM 41.0 °F 37.4 °F 87% 30.21 in 10.0 mi Calm Calm - N/A   Clear
1:35 AM 39.2 °F 35.6 °F 87% 30.21 in 10.0 mi Calm Calm - N/A   Clear
1:55 AM 37.4 °F 35.6 °F 93% 30.21 in 10.0 mi Calm Calm - N/A   Clear
2:15 AM 37.4 °F 35.6 °F 93% 30.21 in 10.0 mi Calm Calm - N/A   Clear
2:35 AM 37.4 °F 35.6 °F 93% 30.20 in 10.0 mi Calm Calm - N/A   Clear
2:55 AM 37.4 °F 35.6 °F 93% 30.20 in 10.0 mi Calm Calm - N/A   Clear
3:15 AM 37.4 °F 35.6 °F 93% 30.19 in 10.0 mi Calm Calm - N/A   Clear
3:35 AM 37.4 °F 35.6 °F 93% 30.19 in 10.0 mi Calm Calm - N/A   Clear
3:55 AM 39.2 °F 35.6 °F 87% 30.19 in 10.0 mi Calm Calm - N/A   Clear
4:15 AM 39.2 °F 35.6 °F 87% 30.19 in 10.0 mi Calm Calm - N/A   Clear
4:35 AM 39.2 °F 37.4 °F 93% 30.19 in 10.0 mi Calm Calm - N/A   Clear
4:55 AM 41.0 °F 37.4 °F 87% 30.20 in 10.0 mi Calm Calm - N/A   Clear
5:15 AM 41.0 °F 37.4 °F 87% 30.20 in 10.0 mi Calm Calm - N/A   Clear
5:35 AM 41.0 °F 37.4 °F 87% 30.20 in 10.0 mi Calm Calm - N/A   Clear
5:55 AM 41.0 °F 37.4 °F 87% 30.20 in 10.0 mi Calm Calm - N/A   Clear
6:15 AM 41.0 °F 37.4 °F 87% 30.20 in 10.0 mi Calm Calm - N/A   Clear
6:35 AM 41.0 °F 37.4 °F 87% 30.21 in 10.0 mi Calm Calm - N/A   Clear
6:55 AM 41.0 °F 37.4 °F 87% 30.22 in 10.0 mi Calm Calm - N/A   Clear
7:15 AM 41.0 °F 37.4 °F 87% 30.22 in 10.0 mi Calm Calm - N/A   Clear
7:35 AM 42.8 °F 37.4 °F 81% 30.22 in 10.0 mi Calm Calm - N/A   Clear
7:55 AM 44.6 °F 41.0 °F 87% 30.23 in 10.0 mi Calm Calm - N/A   Clear
8:15 AM 48.2 °F 41.0 °F 76% 30.23 in 10.0 mi Calm Calm - N/A   Clear
8:35 AM 53.6 °F 35.6 °F 51% 30.24 in 10.0 mi Calm Calm - N/A   Clear
8:55 AM 59.0 °F 32.0 °F 36% 30.24 in 10.0 mi Calm Calm - N/A   Clear
9:15 AM 62.6 °F 32.0 °F 32% 30.24 in 10.0 mi Calm Calm - N/A   Clear
9:35 AM 64.4 °F 32.0 °F 30% 30.24 in 10.0 mi Calm Calm - N/A   Clear
9:55 AM 68.0 °F 35.6 °F 30% 30.24 in 10.0 mi Calm Calm - N/A   Clear
10:15 AM 69.8 °F 37.4 °F 31% 30.24 in 10.0 mi Calm Calm - N/A   Clear
10:35 AM 69.8 °F 41.0 °F 35% 30.24 in 10.0 mi Calm Calm - N/A   Clear
10:55 AM 73.4 °F 42.8 °F 33% 30.25 in 10.0 mi Calm Calm - N/A   Clear
11:15 AM 73.4 °F 44.6 °F 36% 30.24 in 10.0 mi West 3.5 mph - N/A   Clear
11:35 AM 75.2 °F 46.4 °F 36% 30.24 in 10.0 mi WSW 5.8 mph - N/A   Clear
11:55 AM 75.2 °F 46.4 °F 36% 30.24 in 10.0 mi NW 4.6 mph - N/A   Clear
12:15 PM 77.0 °F 48.2 °F 36% 30.24 in 10.0 mi WNW 5.8 mph - N/A   Clear
12:35 PM 75.2 °F 46.4 °F 36% 30.23 in 10.0 mi WNW 5.8 mph - N/A   Clear
12:55 PM 75.2 °F 46.4 °F 36% 30.22 in 10.0 mi WNW 5.8 mph - N/A   Clear
1:15 PM 75.2 °F 46.4 °F 36% 30.21 in 10.0 mi WNW 4.6 mph - N/A   Clear
1:35 PM 77.0 °F 46.4 °F 34% 30.20 in 10.0 mi West 8.1 mph - N/A   Clear
1:55 PM 77.0 °F 46.4 °F 34% 30.19 in 10.0 mi WNW 5.8 mph - N/A   Clear
2:15 PM 75.2 °F 44.6 °F 34% 30.19 in 10.0 mi WNW 5.8 mph - N/A   Clear
2:35 PM 75.2 °F 41.0 °F 29% 30.19 in 10.0 mi WSW 9.2 mph - N/A   Clear
2:55 PM 75.2 °F 42.8 °F 31% 30.19 in 10.0 mi WSW 8.1 mph - N/A   Clear
3:15 PM 73.4 °F 46.4 °F 38% 30.18 in 10.0 mi WSW 8.1 mph - N/A   Clear
3:35 PM 75.2 °F 50.0 °F 41% 30.18 in 10.0 mi WSW 5.8 mph - N/A   Clear
3:55 PM 73.4 °F 50.0 °F 44% 30.18 in 10.0 mi West 6.9 mph - N/A   Clear
4:15 PM 73.4 °F 50.0 °F 44% 30.18 in 10.0 mi WNW 6.9 mph - N/A   Clear
4:35 PM 73.4 °F 50.0 °F 44% 30.18 in 10.0 mi West 6.9 mph - N/A   Clear
4:55 PM 71.6 °F 51.8 °F 50% 30.18 in 10.0 mi WNW 4.6 mph - N/A   Clear
5:15 PM 69.8 °F 53.6 °F 56% 30.18 in 10.0 mi WNW 5.8 mph - N/A   Clear
5:35 PM 69.8 °F 53.6 °F 56% 30.18 in 10.0 mi West 5.8 mph - N/A   Clear
5:55 PM 68.0 °F 53.6 °F 60% 30.18 in 10.0 mi West 6.9 mph - N/A   Clear
6:15 PM 64.4 °F 53.6 °F 68% 30.19 in 10.0 mi West 4.6 mph - N/A   Clear
6:35 PM 64.4 °F 53.6 °F 68% 30.18 in 10.0 mi Calm Calm - N/A   Clear
6:55 PM 62.6 °F 53.6 °F 72% 30.18 in 10.0 mi Calm Calm - N/A   Clear
7:15 PM 60.8 °F 53.6 °F 77% 30.19 in 10.0 mi Calm Calm - N/A   Clear
7:35 PM 60.8 °F 53.6 °F 77% 30.18 in 10.0 mi Calm Calm - N/A   Clear
7:55 PM 59.0 °F 51.8 °F 77% 30.19 in 10.0 mi Calm Calm - N/A   Clear
8:15 PM 57.2 °F 51.8 °F 82% 30.18 in 10.0 mi Calm Calm - N/A   Clear
8:35 PM 55.4 °F 51.8 °F 88% 30.18 in 10.0 mi Calm Calm - N/A   Clear
8:55 PM 55.4 °F 50.0 °F 82% 30.18 in 10.0 mi Calm Calm - N/A   Clear
9:15 PM 53.6 °F 50.0 °F 88% 30.19 in 10.0 mi Calm Calm - N/A   Clear
9:35 PM 53.6 °F 50.0 °F 88% 30.19 in 10.0 mi Calm Calm - N/A   Clear
9:55 PM 51.8 °F 50.0 °F 94% 30.19 in 10.0 mi Calm Calm - N/A   Clear
10:15 PM 51.8 °F 50.0 °F 94% 30.20 in 10.0 mi East 4.6 mph - N/A   Clear
10:35 PM 53.6 °F 51.8 °F 94% 30.20 in 10.0 mi Calm Calm - N/A   Clear
10:55 PM 53.6 °F 50.0 °F 88% 30.19 in 10.0 mi Calm Calm - N/A   Clear
11:15 PM 53.6 °F 50.0 °F 88% 30.19 in 10.0 mi Calm Calm - N/A   Clear
11:35 PM 51.8 °F 50.0 °F 94% 30.18 in 10.0 mi Calm Calm - N/A   Clear
11:55 PM 51.8 °F 50.0 °F 94% 30.18 in 10.0 mi Calm Calm - N/A   Clear